APSTAR-9

Last updated on Tue Sep 22 2026 00:03:13 GMT+0000 (Coordinated Universal Time)

1 40982U 15059A 26264.65976892 -.00000269 00000+0 00000+0 0 9991 2 40982 0.0437 52.1373 0002568 124.7891 203.1620 1.00273322 40078
UTC large
Height (km)
Speed (km/s)
/
Latitude / Longitude
Inclination (degrees)
Orbital Period (minutes)
Azimuth
Elevation
Range (km)
Doppler Factor

Next 0 passes for location: London (51.5072 / 0.1276)

No passes found over London.
APSTAR-9